Regional Weather Roundup
Issued by NWS Green Bay, WI

Home | Current Version | Previous Version | Graphics & Text | Print | Product List | Glossary Off
Versions: 1 2 3 4 5 6 7 8 9 10 11 12 13 14 15 16 17 18 19 20 21 22 23 24 25 26 27 28 29 30 31 32 33 34 35 36 37 38 39 40 41 42 43 44 45 46 47 48 49 50

000
ASUS43 KGRB 031859
RWRGRB

NORTH-CENTRAL AND NORTHEAST WISCONSIN REGIONAL WEATHER ROUNDUP
NATIONAL WEATHER SERVICE GREEN BAY WI
100 PM CST TUE MAR 03 2015

WIZ005-009-010>012-018-019-032000-
NORTH CENTRAL WISCONSIN

CITY           SKY/WX    TMP DP  RH WIND       PRES   REMARKS
IRONWOOD       CLOUDY    25  18  74 SW13G20   29.52F
MANITOWISH WTR NOT AVBL
ARBOR VITAE    NOT AVBL
EAGLE RIVER    NOT AVBL
LAND O LAKES   NOT AVBL
RHINELANDER    LGT SNOW  23  16  74 W10G20    29.54F
PHILLIPS       LGT SNOW  24  18  75 W9        29.55F
ANTIGO         NOT AVBL
TOMAHAWK       NOT AVBL
MERRILL        NOT AVBL
$$

WIZ013-073-032000-
NORTHEAST WISCONSIN

CITY           SKY/WX    TMP DP  RH WIND       PRES   REMARKS
IRON MOUNTAIN  LGT SNOW  24  19  81 SW6       29.53F VSB 1
MARINETTE      CLOUDY    28  27  93 W5        29.56F
$$

WIZ017-030-035>037-045-032000-
CENTRAL WISCONSIN

CITY           SKY/WX    TMP DP  RH WIND       PRES   REMARKS
MEDFORD        NOT AVBL
WAUSAU         CLOUDY    24  18  77 W13       29.56S
MOSINEE        LGT SNOW  25  21  86 W12       29.58F
MARSHFIELD     CLOUDY    25  19  78 W13       29.58F
WISC RAPIDS    CLOUDY    25  21  85 W9        29.61F
STEVENS POINT  NOT AVBL
WAUPACA        NOT AVBL
SHAWANO        NOT AVBL
CLINTONVILLE   MIX PCPN  27  25  93 SW6       29.57F
$$

WIZ038-039-048-051-032000-
FOX VALLEY

CITY           SKY/WX    TMP DP  RH WIND       PRES   REMARKS
NWS GREEN BAY  LGT SNOW  27  25  92 SW10      29.57F FOG
APPLETON       CLOUDY    27  25  93 SW10      29.58F FOG
OSHKOSH        CLOUDY    28  24  85 W10G18    29.58F FOG
FOND DU LAC    CLOUDY    29  25  85 SW10      29.58F
$$

WIZ022-050-052-032000-
EAST CENTRAL WISCONSIN

CITY           SKY/WX    TMP DP  RH WIND       PRES   REMARKS
STURGEON BAY   CLOUDY    28  25  86 S10       29.58F
MANITOWOC      MIX PCPN  30  28  93 SW12      29.58F FOG
SHEBOYGAN      CLOUDY    29  27  92 SW10      29.57F FOG
$$

LMZ563-521-522-541>543-032000-
LAKESHORE

STATION/POSITION TIME  TEMP    WIND        PRES    VSBY  WAVE
                       AIR SEA DIR/SP/G                  HT/PER
                 (UTC) (F)     (DEG/KT/KT) (MB)    (MI)  (FT/S)
SHEBOYGAN LKSHOR 1800   30     200/  7/  8 1003.8F
KEWAUNEE LKSHORE 1800   29     200/ 12/ 16 1001.7F
NORTHPORT PIER   1800   27     160/ 10/ 22 1002.7F
SISTER BAY LKSHO 1800   29     180/ 16/ 20   N/A
CHAMBERS ISLAND  1800   28     160/  5/ 11 1003.0F
MENOMINEE LKSHOR 1800   28     230/ 10     1002.6F
$$



USA.gov is the U.S. government's official web portal to all federal, state and local government web resources and services.